[[{"header":{"parameterUnit":"m.s-1","parameterCategory":1,"la1":30.2991,"la2":30.254,"lo1":-89.0895,"lo2":-89.0444,"dy":0.0017,"dx":0.0017,"nx":28,"ny":28,"refTime":"2025-04-19T09:00:00:Z","depth":0,"parameterNumber":2,"parameterNumberName":"U-component_of_WINDS"},"data":[0,0,0,0,0,0,0,0,0,0,0,0,0,0,0,0,0,0,0,0,0,0,0,0,0,0,0,0,0,0,0,0,0,0,0,0,0,0,0,0,0,0,0,0,0,0,0,0,0,0,0,0,0,0,0,0,0,0,-4.9894,-4.9893,0,-4.9885,-4.9884,-4.9884,-4.9806,-4.9804,-4.9802,-4.98,-4.9793,-4.9794,-4.9796,0,0,0,0,0,0,0,0,0,0,0,0,0,-4.9846,-4.9848,-4.9894,-4.9893,-4.9893,-4.9885,-4.9884,-4.9884,-4.9807,-4.9804,-4.9802,-4.98,-4.9792,-4.9794,-4.9796,0,0,0,0,0,0,0,0,0,0,0,0,0,-4.9855,-4.9848,-4.9894,-4.9853,-4.985,-4.9885,-4.9884,-4.9884,-4.9807,-4.9804,-4.9801,-4.9798,-4.9791,-4.9794,-4.9796,-4.9869,0,0,-4.9803,-4.9804,0,0,0,0,0,0,0,0,-4.9855,-4.9857,-4.9859,-4.9856,-4.9852,-4.9843,-4.9865,-4.9879,-4.9808,-4.9823,-4.98,-4.9797,-4.9812,-4.9812,-4.9817,-4.9869,-4.9869,-4.9804,-4.9805,-4.9806,-4.9807,0,0,0,0,0,0,0,-4.9854,-4.9857,-4.989,-4.986,-4.9855,-4.9837,-4.9835,-4.9867,-4.9834,-4.9822,-4.9816,-4.9816,-4.9809,-4.9815,-4.9816,-4.9868,-4.9804,-4.9806,-4.9807,-4.9808,-4.9981,-4.9984,0,0,0,0,0,0,-4.9859,-4.9857,-4.989,-4.989,-4.9846,-4.984,-4.9838,-4.9849,-4.9834,-4.9828,-4.9818,-4.9812,-4.9812,-4.9814,-4.9816,-4.99,-4.9806,-4.9808,-4.981,-4.9978,-4.9982,-4.9985,0,0,0,0,0,0,-4.9858,-4.9863,-4.9891,-4.9872,-4.9874,-4.9844,-4.9857,-4.9851,-4.9856,-4.9831,-4.9825,-4.983,-4.981,-4.9813,-4.9857,-4.9898,-4.9809,-4.9812,-4.9974,-4.9979,-4.9983,-5.0068,0,0,0,0,0,0,-4.9857,-4.9863,-4.9889,-4.9873,-4.9875,-4.9931,-4.986,-4.9853,-4.986,-4.9852,-4.984,-4.9836,-4.9808,-4.9854,-4.9859,-4.99,-4.9814,-4.997,-4.9976,-4.9982,-5.0062,-5.0075,-5.0087,0,0,0,0,0,-4.9856,-4.9914,-4.9891,-4.9895,-4.9907,-4.9933,-4.9934,-4.9901,-4.9864,-4.989,-4.9875,-4.9836,-4.9894,-4.9859,-4.9864,-4.9907,-4.9967,-4.9974,-4.9981,-5.0056,-5.0073,-5.0087,0,0,0,0,0,0,-4.9935,-4.9911,-4.9885,-4.9939,-4.9939,-4.992,-4.9952,-4.992,-4.993,-4.9922,-4.9882,-4.988,-4.993,-4.9923,-4.9884,-4.9977,-4.9924,-4.9933,-4.9979,-4.9995,-5.0007,-5.0006,-4.9816,0,0,0,0,0,-4.9959,-4.9981,-4.9959,-5.0009,-5.001,-4.9982,-4.9992,-4.9967,-4.9965,-4.9964,-4.9951,-4.9952,-4.997,-4.9983,-4.9998,-5.0062,-5.0058,-5.0095,-5.0107,-5.0118,-5.0125,-5.0158,-5.0174,-5.0008,-5.0008,-5.0008,0,0,-5.0008,-4.9997,-5.0014,-5.0025,-5.0021,-5.0046,-4.9982,-5.001,-5.0028,-4.9968,-5.0008,-5.0,-4.9998,-5.0053,-5.0076,-5.0048,-5.017,-5.0127,-5.0136,-5.0136,-5.0167,-5.0183,-5.0197,-5.0013,-5.0012,-5.0011,0,0,-5.0109,-5.0104,-5.0144,-5.0143,-5.014,-5.0121,-5.0131,-5.0118,-5.011,-5.015,-5.0106,-5.0128,-5.0161,-5.0161,-5.0165,-5.0271,-5.0235,-5.0278,-5.0343,-5.0376,-5.0389,-5.0401,-5.0437,-5.0451,-5.0286,-5.0286,-5.0286,0,-5.0169,-5.0203,-5.017,-5.0201,-5.0207,-5.0156,-5.0198,-5.0199,-5.0201,-5.0207,-5.0177,-5.0217,-5.0212,-5.0266,-5.0292,-5.0298,-5.0309,-5.0277,-5.039,-5.0401,-5.0411,-5.0445,-5.0459,-5.0291,-5.029,-5.029,-5.0289,0,-5.0278,-5.0304,-5.0337,-5.034,-5.0351,-5.0388,-5.036,-5.0376,-5.0352,-5.0337,-5.0379,-5.0373,-5.0386,-5.0398,-5.0374,-5.0449,-5.0432,-5.0397,-5.0342,-5.0433,-5.0464,-5.0477,-5.0298,-5.0296,-5.0295,-5.0294,0,0,-5.0423,-5.041,-5.0423,-5.0424,-5.0418,-5.0437,-5.0473,-5.0486,-5.05,-5.0505,-5.0533,-5.0564,-5.0532,-5.0538,-5.0515,-5.0544,-5.0628,-5.0506,-5.0505,-5.0526,-5.0709,-5.0732,-5.0748,-5.0606,-5.0608,-5.061,-5.0708,0,-5.0519,-5.0576,-5.0549,-5.0611,-5.0633,-5.0588,-5.0619,-5.062,-5.0608,-5.0627,-5.0615,-5.0636,-5.0594,-5.0597,-5.0624,-5.0611,-5.0663,-5.0605,-5.0631,-5.0632,-5.0629,-5.0764,-5.0789,-5.0881,-5.072,-5.0722,-5.0724,0,-5.0636,-5.0645,-5.0709,-5.0701,-5.071,-5.0738,-5.0749,-5.0767,-5.0769,-5.0758,-5.0766,-5.0737,-5.0773,-5.0722,-5.077,-5.0731,-5.0742,-5.0738,-5.0741,-5.0738,-5.0681,-5.0763,-5.091,-5.0923,-5.0743,-5.0742,-5.074,0,-5.0732,-5.0762,-5.0804,-5.0807,-5.0799,-5.082,-5.0818,-5.0816,-5.0827,-5.0837,-5.0844,-5.0859,-5.0867,-5.088,-5.0856,-5.0821,-5.0908,-5.0855,-5.09,-5.09,-5.0916,-5.0914,-5.1063,-5.0929,-5.0929,-5.0928,-5.0928,0,-5.0839,-5.0879,-5.0847,-5.0873,-5.0917,-5.0888,-5.0933,-5.0926,-5.0926,-5.095,-5.0913,-5.0937,-5.0906,-5.0927,-5.091,-5.0952,-5.0957,-5.0949,-5.0943,-5.095,-5.0951,-5.0953,-5.0945,-5.0932,-5.0931,-5.0931,-5.093,0,-5.0952,-5.0932,-5.0975,-5.0965,-5.0964,-5.0997,-5.0989,-5.1013,-5.1001,-5.1032,-5.1038,-5.1019,-5.1042,-5.1021,-5.1044,-5.1032,-5.1088,-5.1075,-5.1087,-5.1082,-5.1127,-5.1122,-5.1279,-5.1298,-5.1155,-5.1156,-5.1157,0,-5.1019,-5.1049,-5.1043,-5.1057,-5.1057,-5.1079,-5.109,-5.1064,-5.1077,-5.1082,-5.1106,-5.1126,-5.114,-5.118,-5.1169,-5.1186,-5.1171,-5.1226,-5.1173,-5.118,-5.1169,-5.1166,-5.1168,-5.1235,-5.1236,-5.1238,-5.1239,0,-5.114,-5.113,-5.1146,-5.1161,-5.1175,-5.1185,-5.1192,-5.1206,-5.1179,-5.1196,-5.1219,-5.1231,-5.1255,-5.1275,-5.129,-5.1289,-5.1259,-5.1257,-5.1267,-5.1272,-5.1277,-5.1273,-5.1112,-5.1252,-5.125,-5.1249,-5.1249,-5.1248,-5.123,-5.1255,-5.1255,-5.1275,-5.1279,-5.1287,-5.1309,-5.1301,-5.132,-5.1336,-5.1321,-5.1349,-5.1352,-5.1369,-5.1372,-5.1394,-5.1372,-5.1388,-5.1391,-5.1395,-5.14,-5.1277,-5.1397,-5.1397,-5.1397,-5.1396,-5.1396,0,-5.1346,-5.1345,-5.1365,-5.1376,-5.1393,-5.1367,-5.1374,-5.139,-5.1415,-5.1421,-5.1436,-5.1464,-5.1485,-5.1477,-5.1496,-5.1516,-5.1503,-5.1521,-5.1517,-5.1517,-5.142,-5.1408,-5.1531,-5.1531,-5.1531,-5.1531,-5.1531,-5.1531,-5.1409,-5.1449,-5.144,-5.1482,-5.1481,-5.1508,-5.1515,-5.1523,-5.1527,-5.156,-5.1577,-5.1572,-5.1572,-5.1591,-5.161,-5.1607,-5.1614,-5.1637,-5.163,-5.1538,-5.1524,-5.1511,-5.1499,-5.164,-5.164,-5.1724,-5.1725,-5.1726]},{"header":{"parameterUnit":"m.s-1","parameterCategory":1,"la1":30.2991,"la2":30.254,"lo1":-89.0895,"lo2":-89.0444,"dy":0.0017,"dx":0.0017,"nx":28,"ny":28,"refTime":"2025-04-19T09:00:00:Z","depth":0,"parameterNumber":3,"parameterNumberName":"V-component_of_WINDS"},"data":[0,0,0,0,0,0,0,0,0,0,0,0,0,0,0,0,0,0,0,0,0,0,0,0,0,0,0,0,0,0,0,0,0,0,0,0,0,0,0,0,0,0,0,0,0,0,0,0,0,0,0,0,0,0,0,0,0,0,3.4559,3.4559,0,3.4552,3.4552,3.4552,3.4586,3.4587,3.4588,3.4589,3.4576,3.4574,3.4573,0,0,0,0,0,0,0,0,0,0,0,0,0,3.4598,3.4597,3.4559,3.4559,3.4559,3.4552,3.4552,3.4552,3.4586,3.4587,3.4588,3.4589,3.4576,3.4574,3.4573,0,0,0,0,0,0,0,0,0,0,0,0,0,3.4585,3.4597,3.4559,3.4575,3.4577,3.4552,3.4552,3.4552,3.4586,3.4587,3.4589,3.459,3.4577,3.4575,3.4573,3.453,0,0,3.4567,3.4566,0,0,0,0,0,0,0,0,3.4586,3.4583,3.4573,3.4574,3.4576,3.4572,3.4561,3.4544,3.4585,3.4582,3.4589,3.4591,3.4573,3.4571,3.4566,3.4529,3.4529,3.4567,3.4565,3.4564,3.4564,0,0,0,0,0,0,0,3.4587,3.4584,3.4556,3.4573,3.4574,3.4581,3.4581,3.4558,3.4569,3.4582,3.4585,3.4584,3.4574,3.4568,3.4566,3.4529,3.4567,3.4565,3.4564,3.4563,3.4458,3.4456,0,0,0,0,0,0,3.4586,3.4585,3.4556,3.4556,3.4585,3.458,3.4579,3.4571,3.4569,3.457,3.4583,3.4586,3.4571,3.4568,3.4566,3.4517,3.4565,3.4563,3.4562,3.4459,3.4457,3.4456,0,0,0,0,0,0,3.4587,3.4583,3.4557,3.4571,3.4568,3.4577,3.4568,3.457,3.4565,3.4569,3.4571,3.4575,3.4572,3.4568,3.4539,3.4517,3.4562,3.456,3.4461,3.4459,3.4457,3.4418,0,0,0,0,0,0,3.4588,3.4583,3.4568,3.457,3.4567,3.4532,3.4566,3.4569,3.4562,3.4566,3.4563,3.4564,3.4573,3.4542,3.4537,3.4515,3.4558,3.4463,3.446,3.4457,3.4422,3.4415,3.4409,0,0,0,0,0,3.4589,3.4556,3.4567,3.4564,3.4549,3.453,3.4528,3.4541,3.456,3.4545,3.4548,3.4564,3.452,3.4539,3.4534,3.4511,3.4465,3.4461,3.4458,3.4425,3.4416,3.4409,0,0,0,0,0,0,3.4549,3.4557,3.4569,3.4536,3.4533,3.4536,3.4517,3.4532,3.4521,3.4525,3.4539,3.4538,3.4507,3.4505,3.4526,3.447,3.4496,3.4491,3.4472,3.4464,3.4458,3.446,3.4557,0,0,0,0,0,3.4537,3.4523,3.453,3.45,3.4498,3.4508,3.45,3.451,3.4506,3.4504,3.4505,3.4499,3.4484,3.4474,3.446,3.4421,3.4421,3.4403,3.4397,3.4392,3.4387,3.4368,3.436,3.4444,3.4444,3.4444,0,0,3.451,3.4513,3.4503,3.4492,3.449,3.4475,3.4506,3.4487,3.4476,3.4501,3.4475,3.4475,3.4469,3.4435,3.442,3.4433,3.4364,3.4387,3.4383,3.4381,3.4363,3.4355,3.4348,3.4441,3.4442,3.4442,0,0,3.4455,3.4456,3.4432,3.443,3.4428,3.4435,3.4429,3.4431,3.4433,3.4407,3.4426,3.4411,3.4385,3.4381,3.4375,3.4319,3.4333,3.4313,3.4281,3.4262,3.4255,3.4249,3.4231,3.4223,3.4309,3.4309,3.4309,0,3.4423,3.4401,3.4417,3.4398,3.4393,3.4417,3.4393,3.4389,3.4382,3.4377,3.4392,3.4361,3.4358,3.4325,3.4312,3.4305,3.4299,3.4314,3.4255,3.425,3.4244,3.4226,3.4219,3.4307,3.4307,3.4307,3.4307,0,3.4362,3.4346,3.4327,3.4323,3.4315,3.4293,3.4304,3.4294,3.4305,3.431,3.4283,3.4281,3.4269,3.4261,3.427,3.4229,3.4237,3.4253,3.4279,3.4234,3.4217,3.4211,3.4303,3.4304,3.4305,3.4306,0,0,3.4281,3.4287,3.428,3.4278,3.4278,3.4266,3.4244,3.4234,3.4226,3.4219,3.4202,3.418,3.4196,3.4189,3.4198,3.4181,3.4138,3.4199,3.4199,3.4189,3.4093,3.4082,3.4074,3.4148,3.4146,3.4145,3.4094,0,3.4229,3.4196,3.4209,3.4174,3.4161,3.4183,3.4165,3.4162,3.4166,3.4154,3.4157,3.4142,3.4163,3.416,3.4144,3.4147,3.4119,3.415,3.4131,3.413,3.4133,3.4065,3.4053,3.4005,3.4087,3.4086,3.4086,0,3.4163,3.4157,3.4121,3.4125,3.4119,3.4103,3.4095,3.4083,3.408,3.4084,3.4078,3.4091,3.4069,3.4095,3.4065,3.4086,3.4079,3.4079,3.4077,3.4077,3.4106,3.4064,3.3989,3.3983,3.4075,3.4076,3.4077,0,3.411,3.4092,3.4069,3.4067,3.407,3.4058,3.4058,3.4057,3.405,3.4042,3.4038,3.4027,3.4021,3.4011,3.4021,3.4038,3.399,3.4016,3.3993,3.3992,3.3982,3.3983,3.3907,3.3975,3.3975,3.3975,3.3976,0,3.405,3.4028,3.4046,3.4031,3.4007,3.4022,3.3996,3.3999,3.3998,3.3984,3.4001,3.3987,3.4,3.3987,3.3993,3.3968,3.3965,3.3967,3.397,3.3967,3.3966,3.3963,3.3967,3.3974,3.3974,3.3974,3.3975,0,3.3987,3.3998,3.3975,3.398,3.3981,3.3963,3.3967,3.3953,3.3959,3.394,3.3937,3.3945,3.393,3.3939,3.3923,3.3927,3.3895,3.3901,3.3897,3.3899,3.3876,3.3878,3.3796,3.3786,3.3859,3.3859,3.3858,0,3.395,3.3933,3.3937,3.393,3.393,3.3918,3.3912,3.3926,3.3918,3.3914,3.3901,3.3888,3.3879,3.3854,3.3858,3.3846,3.3853,3.3825,3.3851,3.3849,3.3854,3.3855,3.3854,3.3819,3.3819,3.3818,3.3817,0,3.3882,3.3888,3.388,3.3873,3.3866,3.386,3.3856,3.3849,3.3863,3.3853,3.384,3.3833,3.3818,3.3805,3.3795,3.3794,3.3808,3.3809,3.3803,3.38,3.3799,3.3801,3.3884,3.3811,3.3812,3.3812,3.3812,3.3813,3.3831,3.3818,3.382,3.3809,3.3808,3.3804,3.3793,3.3797,3.3787,3.3778,3.3786,3.377,3.3767,3.3756,3.3753,3.374,3.3751,3.3742,3.374,3.3738,3.3735,3.3801,3.3737,3.3738,3.3738,3.3738,3.3738,0,3.3765,3.3768,3.3758,3.3754,3.3745,3.376,3.3757,3.3749,3.3735,3.3733,3.3724,3.3708,3.3696,3.3699,3.3688,3.3677,3.3683,3.3674,3.3675,3.3675,3.3725,3.3732,3.3669,3.3669,3.3669,3.3669,3.3669,3.3669,3.373,3.371,3.3716,3.3695,3.3697,3.3683,3.368,3.3676,3.3675,3.3657,3.3648,3.3651,3.365,3.3639,3.3629,3.363,3.3625,3.3614,3.3617,3.3664,3.3671,3.3678,3.3684,3.3612,3.3612,3.3568,3.3568,3.3567]}]]